[Date Prev][Date Next][Thread Prev][Thread Next] - [Date Index][Thread Index][Author Index]
2 Line ISS Keps 5-28
- Subject: [sarex] 2 Line ISS Keps 5-28
- From: "Dave Larsen PhD" <doc@xxxxxxxxxxx>
- Date: Sat, 28 May 2005 05:12:00 -0700
ISS
1 25544U 98067A 05148.23935185 .00011403 00000-0 89236-4 0 5665
2 25544 051.6465 003.1062 0005403 171.5875 346.4513 15.72150769372547
----
Via the sarex mailing list at AMSAT.ORG courtesy of AMSAT-NA.
To unsubscribe, send "unsubscribe sarex" to Majordomo@amsat.org
AMSAT Home